Change the Weather History Date:

Wednesday, December 5, 2012

  Actual Average Record
Temperature  
Mean Temperature 42 °F -  
Max Temperature 48 °F 30 °F - ()
Min Temperature 36 °F 16 °F - ()
Degree Days  
Heating Degree Days 23    
Moisture  
Dew Point 40 °F    
Average Humidity 91    
Maximum Humidity 100    
Minimum Humidity 77    
Precipitation  
Precipitation 0.08 in 0.17 in - ()
Sea Level Pressure  
Sea Level Pressure 29.83 in    
Wind  
Wind Speed 14 mph ()    
Max Wind Speed 24 mph    
Max Gust Speed 32 mph    
Visibility 13.6 miles    
Events Rain    
T = Trace of Precipitation, MM = Missing Value Source: Averaged Metar Reports

Daily Weather History Graph

Daily Weather History Graph

Search for Another Location

Airport or City:

Trip Planner

Search our weather history database for the weather conditions in past years. The results will help you decide how hot, cold, wet, or windy it might be!

Date:

Astronomy

Dec. 05, 2012 Rise Set
Actual Time 7:39 AM AST 4:26 PM AST
Civil Twilight 7:05 AM AST 5:00 PM AST
Nautical Twilight 6:27 AM AST 5:38 PM AST
Astronomical Twilight 5:51 AM AST 6:15 PM AST
Moon 11:28 PM AST (12/5) 11:45 AM AST (12/5)
Length of Visible Light 9h 55m
Length of Day
8h 46m
Waning Gibbous, 60% of the Moon is Illuminated
Dec 5
Waning Gibbous
Dec 6
Last Quarter
Dec 13
New
Dec 20
First Quarter
Dec 28
Full

Hourly Weather History & Observations

Time (AST) Temp. Windchill Dew Point Humidity Pressure Visibility Wind Dir Wind Speed Gust Speed Precip Events Conditions
12:00 AM 37.4 °F 28.9 °F 35.6 °F 93% 30.11 in 15.0 mi South 13.8 mph 21.9 mph N/A   Overcast
12:32 AM 37.4 °F 27.5 °F 35.6 °F 93% 30.09 in 15.0 mi South 18.4 mph - N/A   Overcast
1:00 AM 37.4 °F 28.5 °F 35.6 °F 93% 30.08 in 15.0 mi South 15.0 mph 20.7 mph N/A   Overcast
2:00 AM 37 °F - 36 °F 92% 30.07 in 15 mi South 12.7 mph - -   Overcast
2:00 AM 37.4 °F 29.8 °F 35.6 °F 93% 30.07 in 15.0 mi South 11.5 mph 18.4 mph N/A   Overcast
2:18 AM 37.4 °F 29.3 °F 35.6 °F 93% 30.06 in 15.0 mi South 12.7 mph - N/A   Overcast
3:00 AM 37.4 °F 28.5 °F 35.6 °F 93% 30.03 in 15.0 mi South 15.0 mph - N/A   Overcast
4:00 AM 39.2 °F 29.3 °F 35.6 °F 87% 30.00 in 15.0 mi South 20.7 mph 26.5 mph N/A   Overcast
5:00 AM 39.2 °F 29.3 °F 37.4 °F 93% 29.98 in 15.0 mi South 20.7 mph 28.8 mph N/A   Overcast
6:00 AM 41.0 °F 32.2 °F 37.4 °F 87% 29.95 in 15.0 mi South 18.4 mph - N/A   Overcast
7:00 AM 41.0 °F 31.9 °F 39.2 °F 93% 29.92 in 15.0 mi South 19.6 mph 26.5 mph N/A   Overcast
8:00 AM 42 °F - 41 °F 93% 29.90 in 15 mi South 18.4 mph - -   Overcast
8:00 AM 42.8 °F 34.8 °F 41.0 °F 93% 29.90 in 15.0 mi South 17.3 mph 25.3 mph N/A   Overcast
9:00 AM 42.8 °F 34.8 °F 41.0 °F 93% 29.87 in 15.0 mi South 17.3 mph - N/A   Overcast
11:00 AM 44.6 °F 36.9 °F 42.8 °F 93% 29.82 in 15.0 mi South 18.4 mph - N/A Rain Light Rain Showers
12:00 PM 46.4 °F 39.5 °F 44.6 °F 93% 29.77 in 15.0 mi South 17.3 mph 25.3 mph N/A Rain Light Rain Showers
12:42 PM 46.4 °F 39.0 °F 44.6 °F 93% 29.73 in 15.0 mi South 19.6 mph 25.3 mph N/A Rain Light Rain Showers
1:00 PM 46.4 °F 38.1 °F 44.6 °F 93% 29.71 in 15.0 mi South 24.2 mph 31.1 mph N/A   Overcast
2:00 PM 47 °F - 45 °F 90% 29.68 in 15 mi South 20.7 mph - -   Partly Cloudy
2:00 PM 46.4 °F 38.7 °F 44.6 °F 93% 29.68 in 15.0 mi South 20.7 mph 27.6 mph N/A   Overcast
3:00 PM 48.2 °F - 46.4 °F 93% 29.65 in 3.0 mi South 23.0 mph 32.2 mph N/A Rain Light Rain Showers
3:23 PM 48.2 °F - 46.4 °F 93% 29.65 in 3.0 mi South 19.6 mph 28.8 mph N/A Rain Light Rain Showers
4:00 PM 48.2 °F - 48.2 °F 100% 29.66 in 2.0 mi SSW 12.7 mph 20.7 mph N/A Rain Light Rain Showers
4:52 PM 46.4 °F 43.5 °F 46.4 °F 100% 29.68 in 10.0 mi West 5.8 mph - N/A Rain Light Rain Showers
5:00 PM 46.4 °F 42.9 °F 46.4 °F 100% 29.68 in 12.0 mi West 6.9 mph - N/A Rain Light Rain Showers
6:00 PM 46.4 °F 42.9 °F 44.6 °F 93% 29.70 in 15.0 mi West 6.9 mph - N/A Rain Light Rain Showers
7:00 PM 44.6 °F 40.7 °F 42.8 °F 93% 29.70 in 15.0 mi West 6.9 mph - N/A   Overcast
8:00 PM 44 °F - 39 °F 77% 29.72 in 15 mi West 9.2 mph - -   Partly Cloudy
8:00 PM 44.6 °F 39.7 °F 39.2 °F 81% 29.72 in 15.0 mi West 9.2 mph - N/A   Overcast
10:00 PM 39.2 °F 31.6 °F 33.8 °F 81% 29.72 in 15.0 mi West 12.7 mph - N/A   Mostly Cloudy
10:51 PM 39.2 °F 32.0 °F 35.6 °F 87% 29.72 in 15.0 mi WNW 11.5 mph - N/A   Overcast
11:00 PM 39.2 °F 31.6 °F 35.6 °F 87% 29.72 in 15.0 mi WNW 12.7 mph 18.4 mph N/A   Mostly Cloudy
11:32 PM 37.4 °F 28.5 °F 32.0 °F 81% 29.73 in 15.0 mi WNW 15.0 mph 23.0 mph N/A   Mostly Cloudy